Aeroporto :
LOGIN :

Iscrizione | Disclaimer

   EN    FR    IT 

 










Sommario :    VFR   VFR Marginale   IFR   IFR Intensivo   IFR Molto Intensivo
Visibilità : 
Base nubi : 
>= 8 km
>= 3000ft
5 / 8 km
1000 / 3000 ft
1500m / 5 km
500 / 1000 ft
800 / 1500m
200 / 500 ft
< 800m
< 200 ft
Simboli :   Temporali  Nebbia  Neve Forte  Precipitazioni Forti  Vento > 20 kt
SIGMETs :   Varie  Temporali  Ghiacco  Turbolenza  Onda orograficha  Ceneri Vulcaniche






- Altitudine del aeroporto : 238 ft
- Codice IATA : FAB


EGLF - Farnborough

ULTIMO METAR :
  • 230120Z AUTO 08004KT 9999 OVC010 06/05 Q1035

METARs OBSOLETI :
  • 230050Z AUTO 06004KT 9999 OVC010/// 06/05 Q1035
  • 230020Z AUTO 10005KT 080V140 9999 OVC009/// 06/05 Q1036
  • 222350Z AUTO 08005KT 9999 OVC009/// 06/05 Q1036
  • 222320Z AUTO 09006KT 9999 OVC009/// 06/05 Q1036
  • 222250Z AUTO 08007KT 9999 OVC008/// 06/05 Q1036

Previsioni scadute.
ATIS : +44 09063 800 400 (*282)



MetMap, La meteo Aeronautica in un colpo d'occhio ! - Copyright ORBIFLY Dicembre 2007 - Disclaimer

ORBIFLY MET'MAP TEAM :

Programmazione e sviluppo : Alexandra Zaïnal
Concezione : Baudouin d'Aumeries
Aiuto per la programmazione : Marc-Olivier Méhu
Supporto tecnico e logistico : Manuel Goepfert
Aiuto per la traduzione : Arnaldo La Scala

Contatto : metmap@orbifly.com




FONTI E CREDITI :

   NOAA